Location: Shepherdstown, WV
(39.4326°N, 77.8042°W)
Time: 02:36:59
(UTC-04:00)

X-37B - Pass Details

Date: 29 June 2021
Orbit: 383 x 392 km, 45.0° (Epoch: 01 July)

Event Time Altitude Azimuth Distance (km) Brightness Sun altitude
Rises 00:14:37 0° 295° (WNW) 2,256 5.0 -25.8°
Reaches altitude 10° 00:16:43 10° 300° (WNW) 1,401 3.9 -25.9°
Enters shadow 00:17:25 15° 302° (WNW) 1,123 3.4 -25.9°
